Year,Month,Day,Hour,Minute,Value (Times are PST for temperature in C)
2017,07,13,00,00,17.30
2017,07,13,00,01,17.30
2017,07,13,00,02,17.30
2017,07,13,00,03,17.30
2017,07,13,00,04,17.30
2017,07,13,00,05,17.30
2017,07,13,00,06,17.20
2017,07,13,00,07,17.20
2017,07,13,00,08,17.10
2017,07,13,00,09,17.00
2017,07,13,00,10,17.00
2017,07,13,00,11,16.90
2017,07,13,00,12,16.90
2017,07,13,00,13,16.90
2017,07,13,00,14,16.80
2017,07,13,00,15,16.80
2017,07,13,00,16,16.80
2017,07,13,00,17,16.80
2017,07,13,00,18,16.80
2017,07,13,00,19,16.80
2017,07,13,00,20,16.80
2017,07,13,00,21,16.80
2017,07,13,00,22,16.80
2017,07,13,00,23,16.70
2017,07,13,00,24,16.70
2017,07,13,00,25,16.70
2017,07,13,00,26,16.70
2017,07,13,00,27,16.60
2017,07,13,00,28,16.60
2017,07,13,00,29,16.60
2017,07,13,00,30,16.60
2017,07,13,00,31,16.60
2017,07,13,00,32,16.60
2017,07,13,00,33,16.60
2017,07,13,00,34,16.60
2017,07,13,00,35,16.60
2017,07,13,00,36,16.60
2017,07,13,00,37,16.60
2017,07,13,00,38,16.60
2017,07,13,00,39,16.60
2017,07,13,00,40,16.60
2017,07,13,00,41,16.60
2017,07,13,00,42,16.60
2017,07,13,00,43,16.60
2017,07,13,00,44,16.60
2017,07,13,00,45,16.60
2017,07,13,00,46,16.50
2017,07,13,00,47,16.50
2017,07,13,00,48,16.50
2017,07,13,00,49,16.50
2017,07,13,00,50,16.50
2017,07,13,00,51,16.60
2017,07,13,00,52,16.60
2017,07,13,00,53,16.60
2017,07,13,00,54,16.60
2017,07,13,00,55,16.60
2017,07,13,00,56,16.60
2017,07,13,00,57,16.60
2017,07,13,00,58,16.60
2017,07,13,00,59,16.60
2017,07,13,01,00,16.60
2017,07,13,01,01,16.60
2017,07,13,01,02,16.60
2017,07,13,01,03,16.60
2017,07,13,01,04,16.60
2017,07,13,01,05,16.60
2017,07,13,01,06,16.60
2017,07,13,01,07,16.60
2017,07,13,01,08,16.60
2017,07,13,01,09,16.60
2017,07,13,01,10,16.60
2017,07,13,01,11,16.50
2017,07,13,01,12,16.50
2017,07,13,01,13,16.40
2017,07,13,01,14,16.40
2017,07,13,01,15,16.30
2017,07,13,01,16,16.30
2017,07,13,01,17,16.30
2017,07,13,01,18,16.30
2017,07,13,01,19,16.30
2017,07,13,01,20,16.20
2017,07,13,01,21,16.20
2017,07,13,01,22,16.20
2017,07,13,01,23,16.10
2017,07,13,01,24,16.10
2017,07,13,01,25,16.00
2017,07,13,01,26,15.90
2017,07,13,01,27,15.90
2017,07,13,01,28,15.80
2017,07,13,01,29,15.80
2017,07,13,01,30,15.70
2017,07,13,01,31,15.70
2017,07,13,01,32,15.70
2017,07,13,01,33,15.60
2017,07,13,01,34,15.60
2017,07,13,01,35,15.50
2017,07,13,01,36,15.50
2017,07,13,01,37,15.40
2017,07,13,01,38,15.40
2017,07,13,01,39,15.30
2017,07,13,01,40,15.30
2017,07,13,01,41,15.30
2017,07,13,01,42,15.20
2017,07,13,01,43,15.20
2017,07,13,01,44,15.00
2017,07,13,01,45,15.00
2017,07,13,01,46,15.00
2017,07,13,01,47,15.00
2017,07,13,01,48,15.00
2017,07,13,01,49,14.90
2017,07,13,01,50,14.90
2017,07,13,01,51,14.80
2017,07,13,01,52,14.80
2017,07,13,01,53,14.70
2017,07,13,01,54,14.70
2017,07,13,01,55,14.60
2017,07,13,01,56,14.60
2017,07,13,01,57,14.50
2017,07,13,01,58,14.40
2017,07,13,01,59,14.30
2017,07,13,02,00,14.30
2017,07,13,02,01,14.30
2017,07,13,02,02,14.20
2017,07,13,02,03,14.20
2017,07,13,02,04,14.20
2017,07,13,02,05,14.20
2017,07,13,02,06,14.20
2017,07,13,02,07,14.20
2017,07,13,02,08,14.20
2017,07,13,02,09,14.20
2017,07,13,02,10,14.20
2017,07,13,02,11,14.30
2017,07,13,02,12,14.30
2017,07,13,02,13,14.30
2017,07,13,02,14,14.30
2017,07,13,02,15,14.40
2017,07,13,02,16,14.40
2017,07,13,02,17,14.40
2017,07,13,02,18,14.40
2017,07,13,02,19,14.40
2017,07,13,02,20,14.40
2017,07,13,02,21,14.40
2017,07,13,02,22,14.40
2017,07,13,02,23,14.40
2017,07,13,02,24,14.40
2017,07,13,02,25,14.50
2017,07,13,02,26,14.50
2017,07,13,02,27,14.50
2017,07,13,02,28,14.60
2017,07,13,02,29,14.60
2017,07,13,02,30,14.60
2017,07,13,02,31,14.60
2017,07,13,02,32,14.60
2017,07,13,02,33,14.70
2017,07,13,02,34,14.70
2017,07,13,02,35,14.70
2017,07,13,02,36,14.80
2017,07,13,02,37,14.80
2017,07,13,02,38,14.90
2017,07,13,02,39,15.00
2017,07,13,02,40,15.00
2017,07,13,02,41,15.00
2017,07,13,02,42,15.00
2017,07,13,02,43,15.00
2017,07,13,02,44,15.00
2017,07,13,02,45,15.00
2017,07,13,02,46,15.00
2017,07,13,02,47,15.00
2017,07,13,02,48,15.00
2017,07,13,02,49,15.00
2017,07,13,02,50,15.00
2017,07,13,02,51,15.00
2017,07,13,02,52,15.00
2017,07,13,02,53,15.00
2017,07,13,02,54,15.00
2017,07,13,02,55,15.00
2017,07,13,02,56,14.90
2017,07,13,02,57,14.90
2017,07,13,02,58,14.90
2017,07,13,02,59,14.90
2017,07,13,03,00,14.90
2017,07,13,03,01,14.80
2017,07,13,03,02,14.80
2017,07,13,03,03,14.80
2017,07,13,03,04,14.80
2017,07,13,03,05,14.80
2017,07,13,03,06,14.80
2017,07,13,03,07,14.80
2017,07,13,03,08,14.80
2017,07,13,03,09,14.80
2017,07,13,03,10,14.80
2017,07,13,03,11,14.70
2017,07,13,03,12,14.70
2017,07,13,03,13,14.60
2017,07,13,03,14,14.50
2017,07,13,03,15,14.50
2017,07,13,03,16,14.40
2017,07,13,03,17,14.30
2017,07,13,03,18,14.30
2017,07,13,03,19,14.20
2017,07,13,03,20,14.20
2017,07,13,03,21,14.10
2017,07,13,03,22,14.10
2017,07,13,03,23,14.10
2017,07,13,03,24,14.10
2017,07,13,03,25,14.10
2017,07,13,03,26,14.10
2017,07,13,03,27,14.00
2017,07,13,03,28,13.90
2017,07,13,03,29,13.90
2017,07,13,03,30,13.80
2017,07,13,03,31,13.80
2017,07,13,03,32,13.80
2017,07,13,03,33,13.80
2017,07,13,03,34,13.80
2017,07,13,03,35,13.80
2017,07,13,03,36,13.80
2017,07,13,03,37,13.80
2017,07,13,03,38,13.80
2017,07,13,03,39,13.80
2017,07,13,03,40,13.80
2017,07,13,03,41,13.70
2017,07,13,03,42,13.70
2017,07,13,03,43,13.60
2017,07,13,03,44,13.50
2017,07,13,03,45,13.40
2017,07,13,03,46,13.30
2017,07,13,03,47,13.20
2017,07,13,03,48,13.10
2017,07,13,03,49,13.10
2017,07,13,03,50,13.00
2017,07,13,03,51,13.00
2017,07,13,03,52,13.00
2017,07,13,03,53,13.00
2017,07,13,03,54,13.00
2017,07,13,03,55,12.90
2017,07,13,03,56,12.90
2017,07,13,03,57,13.00
2017,07,13,03,58,13.00
2017,07,13,03,59,13.00
2017,07,13,04,00,13.00
2017,07,13,04,01,13.00
2017,07,13,04,02,13.00
2017,07,13,04,03,13.00
2017,07,13,04,04,13.00
2017,07,13,04,05,13.00
2017,07,13,04,06,13.00
2017,07,13,04,07,13.00
2017,07,13,04,08,13.00
2017,07,13,04,09,13.00
2017,07,13,04,10,13.00
2017,07,13,04,11,12.90
2017,07,13,04,12,12.90
2017,07,13,04,13,12.90
2017,07,13,04,14,12.90
2017,07,13,04,15,12.90
2017,07,13,04,16,12.90
2017,07,13,04,17,12.90
2017,07,13,04,18,12.90
2017,07,13,04,19,12.90
2017,07,13,04,20,12.90
2017,07,13,04,21,12.90
2017,07,13,04,22,12.90
2017,07,13,04,23,12.90
2017,07,13,04,24,12.90
2017,07,13,04,25,12.90
2017,07,13,04,26,12.90
2017,07,13,04,27,12.90
2017,07,13,04,28,13.00
2017,07,13,04,29,13.10
2017,07,13,04,30,13.10
2017,07,13,04,31,13.20
2017,07,13,04,32,13.20
2017,07,13,04,33,13.20
2017,07,13,04,34,13.20
2017,07,13,04,35,13.10
2017,07,13,04,36,13.00
2017,07,13,04,37,13.00
2017,07,13,04,38,12.90
2017,07,13,04,39,12.90
2017,07,13,04,40,12.90
2017,07,13,04,41,12.90
2017,07,13,04,42,12.90
2017,07,13,04,43,12.90
2017,07,13,04,44,12.90
2017,07,13,04,45,12.80
2017,07,13,04,46,12.80
2017,07,13,04,47,12.80
2017,07,13,04,48,12.70
2017,07,13,04,49,12.70
2017,07,13,04,50,12.70
2017,07,13,04,51,12.70
2017,07,13,04,52,12.70
2017,07,13,04,53,12.70
2017,07,13,04,54,12.60
2017,07,13,04,55,12.60
2017,07,13,04,56,12.70
2017,07,13,04,57,12.70
2017,07,13,04,58,12.70
2017,07,13,04,59,12.70
2017,07,13,05,00,12.70
2017,07,13,05,01,12.70
2017,07,13,05,02,12.70
2017,07,13,05,03,12.70
2017,07,13,05,04,12.70
2017,07,13,05,05,12.80
2017,07,13,05,06,12.90
2017,07,13,05,07,13.00
2017,07,13,05,08,13.20
2017,07,13,05,09,13.20
2017,07,13,05,10,13.30
2017,07,13,05,11,13.30
2017,07,13,05,12,13.30
2017,07,13,05,13,13.30
2017,07,13,05,14,13.30
2017,07,13,05,15,13.30
2017,07,13,05,16,13.30
2017,07,13,05,17,13.30
2017,07,13,05,18,13.30
2017,07,13,05,19,13.30
2017,07,13,05,20,13.30
2017,07,13,05,21,13.30
2017,07,13,05,22,13.30
2017,07,13,05,23,13.30
2017,07,13,05,24,13.30
2017,07,13,05,25,13.30
2017,07,13,05,26,13.40
2017,07,13,05,27,13.40
2017,07,13,05,28,13.50
2017,07,13,05,29,13.50
2017,07,13,05,30,13.60
2017,07,13,05,31,13.60
2017,07,13,05,32,13.60
2017,07,13,05,33,13.60
2017,07,13,05,34,13.60
2017,07,13,05,35,13.60
2017,07,13,05,36,13.60
2017,07,13,05,37,13.50
2017,07,13,05,38,13.50
2017,07,13,05,39,13.50
2017,07,13,05,40,13.50
2017,07,13,05,41,13.40
2017,07,13,05,42,13.40
2017,07,13,05,43,13.40
2017,07,13,05,44,13.40
2017,07,13,05,45,13.40
2017,07,13,05,46,13.40
2017,07,13,05,47,13.30
2017,07,13,05,48,13.30
2017,07,13,05,49,13.30
2017,07,13,05,50,13.40
2017,07,13,05,51,13.40
2017,07,13,05,52,13.50
2017,07,13,05,53,13.50
2017,07,13,05,54,13.60
2017,07,13,05,55,13.80
2017,07,13,05,56,13.80
2017,07,13,05,57,14.00
2017,07,13,05,58,14.10
2017,07,13,05,59,14.10
2017,07,13,06,00,14.10
2017,07,13,06,01,14.00
2017,07,13,06,02,13.90
2017,07,13,06,03,13.90
2017,07,13,06,04,13.90
2017,07,13,06,05,13.90
2017,07,13,06,06,13.90
2017,07,13,06,07,14.00
2017,07,13,06,08,14.00
2017,07,13,06,09,14.10
2017,07,13,06,10,14.10
2017,07,13,06,11,14.10
2017,07,13,06,12,14.20
2017,07,13,06,13,14.20
2017,07,13,06,14,14.20
2017,07,13,06,15,14.20
2017,07,13,06,16,14.20
2017,07,13,06,17,14.20
2017,07,13,06,18,14.30
2017,07,13,06,19,14.30
2017,07,13,06,20,14.30
2017,07,13,06,21,14.30
2017,07,13,06,22,14.30
2017,07,13,06,23,14.40
2017,07,13,06,24,14.40
2017,07,13,06,25,14.40
2017,07,13,06,26,14.40
2017,07,13,06,27,14.40
2017,07,13,06,28,14.50
2017,07,13,06,29,14.50
2017,07,13,06,30,14.60
2017,07,13,06,31,14.60
2017,07,13,06,32,14.70
2017,07,13,06,33,14.70
2017,07,13,06,34,14.80
2017,07,13,06,35,14.90
2017,07,13,06,36,15.00
2017,07,13,06,37,15.00
2017,07,13,06,38,15.00
2017,07,13,06,39,15.00
2017,07,13,06,40,15.00
2017,07,13,06,41,15.00
2017,07,13,06,42,15.00
2017,07,13,06,43,15.20
2017,07,13,06,44,15.20
2017,07,13,06,45,15.30
2017,07,13,06,46,15.30
2017,07,13,06,47,15.40
2017,07,13,06,48,15.50
2017,07,13,06,49,15.50
2017,07,13,06,50,15.60
2017,07,13,06,51,15.70
2017,07,13,06,52,15.80
2017,07,13,06,53,15.90
2017,07,13,06,54,15.90
2017,07,13,06,55,16.00
2017,07,13,06,56,16.10
2017,07,13,06,57,16.10
2017,07,13,06,58,16.10
2017,07,13,06,59,16.20
2017,07,13,07,00,16.20
2017,07,13,07,01,16.30
2017,07,13,07,02,16.30
2017,07,13,07,03,16.30
2017,07,13,07,04,16.30
2017,07,13,07,05,16.40
2017,07,13,07,06,16.40
2017,07,13,07,07,16.40
2017,07,13,07,08,16.40
2017,07,13,07,09,16.40
2017,07,13,07,10,16.40
2017,07,13,07,11,16.50
2017,07,13,07,12,16.50
2017,07,13,07,13,16.50
2017,07,13,07,14,16.60
2017,07,13,07,15,16.60
2017,07,13,07,16,16.60
2017,07,13,07,17,16.60
2017,07,13,07,18,16.60
2017,07,13,07,19,16.60
2017,07,13,07,20,16.60
2017,07,13,07,21,16.70
2017,07,13,07,22,16.70
2017,07,13,07,23,16.70
2017,07,13,07,24,16.80
2017,07,13,07,25,16.80
2017,07,13,07,26,16.90
2017,07,13,07,27,16.90
2017,07,13,07,28,16.90
2017,07,13,07,29,17.00
2017,07,13,07,30,17.00
2017,07,13,07,31,17.00
2017,07,13,07,32,17.00
2017,07,13,07,33,17.10
2017,07,13,07,34,17.10
2017,07,13,07,35,17.10
2017,07,13,07,36,17.20
2017,07,13,07,37,17.20
2017,07,13,07,38,17.30
2017,07,13,07,39,17.40
2017,07,13,07,40,17.40
2017,07,13,07,41,17.40
2017,07,13,07,42,17.40
2017,07,13,07,43,17.40
2017,07,13,07,44,17.40
2017,07,13,07,45,17.40
2017,07,13,07,46,17.40
2017,07,13,07,47,17.40
2017,07,13,07,48,17.40
2017,07,13,07,49,17.40
2017,07,13,07,50,17.40
2017,07,13,07,51,17.40
2017,07,13,07,52,17.40
2017,07,13,07,53,17.40
2017,07,13,07,54,17.40
2017,07,13,07,55,17.40
2017,07,13,07,56,17.50
2017,07,13,07,57,17.50
2017,07,13,07,58,17.60
2017,07,13,07,59,17.70
2017,07,13,08,00,17.70
2017,07,13,08,01,17.80
2017,07,13,08,02,17.80
2017,07,13,08,03,17.80
2017,07,13,08,04,17.80
2017,07,13,08,05,17.80
2017,07,13,08,06,17.80
2017,07,13,08,07,17.80
2017,07,13,08,08,17.80
2017,07,13,08,09,17.90
2017,07,13,08,10,17.90
2017,07,13,08,11,18.00
2017,07,13,08,12,18.00
2017,07,13,08,13,18.10
2017,07,13,08,14,18.10
2017,07,13,08,15,18.10
2017,07,13,08,16,18.20
2017,07,13,08,17,18.20
2017,07,13,08,18,18.20
2017,07,13,08,19,18.30
2017,07,13,08,20,18.30
2017,07,13,08,21,18.40
2017,07,13,08,22,18.40
2017,07,13,08,23,18.50
2017,07,13,08,24,18.50
2017,07,13,08,25,18.40
2017,07,13,08,26,18.50
2017,07,13,08,27,18.50
2017,07,13,08,28,18.60
2017,07,13,08,29,18.60
2017,07,13,08,30,18.60
2017,07,13,08,31,18.60
2017,07,13,08,32,18.60
2017,07,13,08,33,18.60
2017,07,13,08,34,18.50
2017,07,13,08,35,18.50
2017,07,13,08,36,18.50
2017,07,13,08,37,18.50
2017,07,13,08,38,18.60
2017,07,13,08,39,18.60
2017,07,13,08,40,18.60
2017,07,13,08,41,18.60
2017,07,13,08,42,18.60
2017,07,13,08,43,18.50
2017,07,13,08,44,18.50
2017,07,13,08,45,18.50
2017,07,13,08,46,18.40
2017,07,13,08,47,18.40
2017,07,13,08,48,18.30
2017,07,13,08,49,18.30
2017,07,13,08,50,18.40
2017,07,13,08,51,18.40
2017,07,13,08,52,18.40
2017,07,13,08,53,18.40
2017,07,13,08,54,18.50
2017,07,13,08,55,18.60
2017,07,13,08,56,18.60
2017,07,13,08,57,18.60
2017,07,13,08,58,18.50
2017,07,13,08,59,18.50
2017,07,13,09,00,18.60
2017,07,13,09,01,18.60
2017,07,13,09,02,18.70
2017,07,13,09,03,18.80
2017,07,13,09,04,18.90
2017,07,13,09,05,19.00
2017,07,13,09,06,19.10
2017,07,13,09,07,19.00
2017,07,13,09,08,18.90
2017,07,13,09,09,18.90
2017,07,13,09,10,18.80
2017,07,13,09,11,18.80
2017,07,13,09,12,18.70
2017,07,13,09,13,18.60
2017,07,13,09,14,18.60
2017,07,13,09,15,18.60
2017,07,13,09,16,18.60
2017,07,13,09,17,18.70
2017,07,13,09,18,18.60
2017,07,13,09,19,18.60
2017,07,13,09,20,18.60
2017,07,13,09,21,18.60
2017,07,13,09,22,18.60
2017,07,13,09,23,18.60
2017,07,13,09,24,18.60
2017,07,13,09,25,18.50
2017,07,13,09,26,18.40
2017,07,13,09,27,18.30
2017,07,13,09,28,18.30
2017,07,13,09,29,18.30
2017,07,13,09,30,18.30
2017,07,13,09,31,18.40
2017,07,13,09,32,18.40
2017,07,13,09,33,18.50
2017,07,13,09,34,18.50
2017,07,13,09,35,18.50
2017,07,13,09,36,18.60
2017,07,13,09,37,18.70
2017,07,13,09,38,18.80
2017,07,13,09,39,18.70
2017,07,13,09,40,18.70
2017,07,13,09,41,18.80
2017,07,13,09,42,18.80
2017,07,13,09,43,18.70
2017,07,13,09,44,18.60
2017,07,13,09,45,18.60
2017,07,13,09,46,18.60
2017,07,13,09,47,18.60
2017,07,13,09,48,18.50
2017,07,13,09,49,18.50
2017,07,13,09,50,18.40
2017,07,13,09,51,18.40
2017,07,13,09,52,18.50
2017,07,13,09,53,18.50
2017,07,13,09,54,18.50
2017,07,13,09,55,18.50
2017,07,13,09,56,18.40
2017,07,13,09,57,18.40
2017,07,13,09,58,18.50
2017,07,13,09,59,18.40
2017,07,13,10,00,18.30
2017,07,13,10,01,18.30
2017,07,13,10,02,18.20
2017,07,13,10,03,18.20
2017,07,13,10,04,18.20
2017,07,13,10,05,18.20
2017,07,13,10,06,18.20
2017,07,13,10,07,18.20
2017,07,13,10,08,18.20
2017,07,13,10,09,18.20
2017,07,13,10,10,18.20
2017,07,13,10,11,18.20
2017,07,13,10,12,18.20
2017,07,13,10,13,18.20
2017,07,13,10,14,18.20
2017,07,13,10,15,18.10
2017,07,13,10,16,18.20
2017,07,13,10,17,18.20
2017,07,13,10,18,18.20
2017,07,13,10,19,18.20
2017,07,13,10,20,18.20
2017,07,13,10,21,18.30
2017,07,13,10,22,18.30
2017,07,13,10,23,18.30
2017,07,13,10,24,18.30
2017,07,13,10,25,18.30
2017,07,13,10,26,18.30
2017,07,13,10,27,18.30
2017,07,13,10,28,18.40
2017,07,13,10,29,18.40
2017,07,13,10,30,18.40
2017,07,13,10,31,18.40
2017,07,13,10,32,18.50
2017,07,13,10,33,18.50
2017,07,13,10,34,18.50
2017,07,13,10,35,18.60
2017,07,13,10,36,18.60
2017,07,13,10,37,18.60
2017,07,13,10,38,18.60
2017,07,13,10,39,18.60
2017,07,13,10,40,18.60
2017,07,13,10,41,18.70
2017,07,13,10,42,18.70
2017,07,13,10,43,18.70
2017,07,13,10,44,18.70
2017,07,13,10,45,18.60
2017,07,13,10,46,18.60
2017,07,13,10,47,18.60
2017,07,13,10,48,18.60
2017,07,13,10,49,18.60
2017,07,13,10,50,18.60
2017,07,13,10,51,18.60
2017,07,13,10,52,18.60
2017,07,13,10,53,18.50
2017,07,13,10,54,18.50
2017,07,13,10,55,18.60
2017,07,13,10,56,18.60
2017,07,13,10,57,18.70
2017,07,13,10,58,18.70
2017,07,13,10,59,18.70
2017,07,13,11,00,18.80
2017,07,13,11,01,18.90
2017,07,13,11,02,19.00
2017,07,13,11,03,19.00
2017,07,13,11,04,19.00
2017,07,13,11,05,19.00
2017,07,13,11,06,19.10
2017,07,13,11,07,19.10
2017,07,13,11,08,19.10
2017,07,13,11,09,19.10
2017,07,13,11,10,19.00
2017,07,13,11,11,19.10
2017,07,13,11,12,19.10
2017,07,13,11,13,19.10
2017,07,13,11,14,19.00
2017,07,13,11,15,19.00
2017,07,13,11,16,19.00
2017,07,13,11,17,18.90
2017,07,13,11,18,18.90
2017,07,13,11,19,19.00
2017,07,13,11,20,19.00
2017,07,13,11,21,19.00
2017,07,13,11,22,19.00
2017,07,13,11,23,19.10
2017,07,13,11,24,19.20
2017,07,13,11,25,19.40
2017,07,13,11,26,19.50
2017,07,13,11,27,19.50
2017,07,13,11,28,19.40
2017,07,13,11,29,19.40
2017,07,13,11,30,19.30
2017,07,13,11,31,19.40
2017,07,13,11,32,19.40
2017,07,13,11,33,19.50
2017,07,13,11,34,19.50
2017,07,13,11,35,19.40
2017,07,13,11,36,19.40
2017,07,13,11,37,19.30
2017,07,13,11,38,19.30
2017,07,13,11,39,19.30
2017,07,13,11,40,19.40
2017,07,13,11,41,19.40
2017,07,13,11,42,19.50
2017,07,13,11,43,19.60
2017,07,13,11,44,19.70
2017,07,13,11,45,19.70
2017,07,13,11,46,19.70
2017,07,13,11,47,19.80
2017,07,13,11,48,19.90
2017,07,13,11,49,20.00
2017,07,13,11,50,20.10
2017,07,13,11,51,20.10
2017,07,13,11,52,20.00
2017,07,13,11,53,19.90
2017,07,13,11,54,19.80
2017,07,13,11,55,20.00
2017,07,13,11,56,20.00
2017,07,13,11,57,20.00
2017,07,13,11,58,20.00
2017,07,13,11,59,19.90
2017,07,13,12,00,19.80
2017,07,13,12,01,19.70
2017,07,13,12,02,19.60
2017,07,13,12,03,19.40
2017,07,13,12,04,19.30
2017,07,13,12,05,19.30
2017,07,13,12,06,19.40
2017,07,13,12,07,19.40
2017,07,13,12,08,19.50
2017,07,13,12,09,19.40
2017,07,13,12,10,19.40
2017,07,13,12,11,19.50
2017,07,13,12,12,19.40
2017,07,13,12,13,19.30
2017,07,13,12,14,19.30
2017,07,13,12,15,19.30
2017,07,13,12,16,19.30
2017,07,13,12,17,19.30
2017,07,13,12,18,19.30
2017,07,13,12,19,19.30
2017,07,13,12,20,19.30
2017,07,13,12,21,19.30
2017,07,13,12,22,19.30
2017,07,13,12,23,19.40
2017,07,13,12,24,19.40
2017,07,13,12,25,19.40
2017,07,13,12,26,19.30
2017,07,13,12,27,19.30
2017,07,13,12,28,19.30
2017,07,13,12,29,19.40
2017,07,13,12,30,19.40
2017,07,13,12,31,19.40
2017,07,13,12,32,19.40
2017,07,13,12,33,19.40
2017,07,13,12,34,19.40
2017,07,13,12,35,19.40
2017,07,13,12,36,19.30
2017,07,13,12,37,19.30
2017,07,13,12,38,19.30
2017,07,13,12,39,19.30
2017,07,13,12,40,19.30
2017,07,13,12,41,19.40
2017,07,13,12,42,19.40
2017,07,13,12,43,19.40
2017,07,13,12,44,19.40
2017,07,13,12,45,19.50
2017,07,13,12,46,19.60
2017,07,13,12,47,19.70
2017,07,13,12,48,19.70
2017,07,13,12,49,19.80
2017,07,13,12,50,19.70
2017,07,13,12,51,19.70
2017,07,13,12,52,19.80
2017,07,13,12,53,19.90
2017,07,13,12,54,20.10
2017,07,13,12,55,20.20
2017,07,13,12,56,20.20
2017,07,13,12,57,20.10
2017,07,13,12,58,20.10
2017,07,13,12,59,20.20
2017,07,13,13,00,20.10
2017,07,13,13,01,20.10
2017,07,13,13,02,20.10
2017,07,13,13,03,20.00
2017,07,13,13,04,20.00
2017,07,13,13,05,20.00
2017,07,13,13,06,20.10
2017,07,13,13,07,20.10
2017,07,13,13,08,19.90
2017,07,13,13,09,19.80
2017,07,13,13,10,19.70
2017,07,13,13,11,19.80
2017,07,13,13,12,19.80
2017,07,13,13,13,19.80
2017,07,13,13,14,19.90
2017,07,13,13,15,19.90
2017,07,13,13,16,20.00
2017,07,13,13,17,20.00
2017,07,13,13,18,20.00
2017,07,13,13,19,20.10
2017,07,13,13,20,20.10
2017,07,13,13,21,20.20
2017,07,13,13,22,20.10
2017,07,13,13,23,20.00
2017,07,13,13,24,19.90
2017,07,13,13,25,19.80
2017,07,13,13,26,19.80
2017,07,13,13,27,19.90
2017,07,13,13,28,19.90
2017,07,13,13,29,19.90
2017,07,13,13,30,20.00
2017,07,13,13,31,20.00
2017,07,13,13,32,20.10
2017,07,13,13,33,20.10
2017,07,13,13,34,20.30
2017,07,13,13,35,20.40
2017,07,13,13,36,20.30
2017,07,13,13,37,20.30
2017,07,13,13,38,20.30
2017,07,13,13,39,20.30
2017,07,13,13,40,20.20
2017,07,13,13,41,20.00
2017,07,13,13,42,19.90
2017,07,13,13,43,19.80
2017,07,13,13,44,19.80
2017,07,13,13,45,19.80
2017,07,13,13,47,19.60
2017,07,13,13,48,19.60
2017,07,13,13,49,19.60
2017,07,13,13,50,19.60
2017,07,13,13,51,19.50
2017,07,13,13,52,19.40
2017,07,13,13,53,19.40
2017,07,13,13,54,19.40
2017,07,13,13,55,19.40
2017,07,13,13,56,19.40
2017,07,13,13,57,19.30
2017,07,13,13,58,19.30
2017,07,13,13,59,19.30
2017,07,13,14,00,19.40
2017,07,13,14,01,19.50
2017,07,13,14,02,19.60
2017,07,13,14,03,19.60
2017,07,13,14,04,19.70
2017,07,13,14,05,19.80
2017,07,13,14,06,19.80
2017,07,13,14,07,19.70
2017,07,13,14,08,19.60
2017,07,13,14,09,19.50
2017,07,13,14,10,19.50
2017,07,13,14,11,19.60
2017,07,13,14,12,19.50
2017,07,13,14,13,19.50
2017,07,13,14,14,19.60
2017,07,13,14,15,19.70
2017,07,13,14,16,19.80
2017,07,13,14,17,19.80
2017,07,13,14,18,19.90
2017,07,13,14,19,19.80
2017,07,13,14,20,19.80
2017,07,13,14,21,19.80
2017,07,13,14,22,19.70
2017,07,13,14,23,19.60
2017,07,13,14,24,19.60
2017,07,13,14,25,19.60
2017,07,13,14,26,19.60
2017,07,13,14,27,19.70
2017,07,13,14,28,19.60
2017,07,13,14,29,19.50
2017,07,13,14,30,19.40
2017,07,13,14,31,19.40
2017,07,13,14,32,19.30
2017,07,13,14,33,19.20
2017,07,13,14,34,19.20
2017,07,13,14,35,19.20
2017,07,13,14,36,19.30
2017,07,13,14,37,19.30
2017,07,13,14,38,19.20
2017,07,13,14,39,19.30
2017,07,13,14,40,19.30
2017,07,13,14,41,19.30
2017,07,13,14,42,19.40
2017,07,13,14,43,19.40
2017,07,13,14,44,19.50
2017,07,13,14,45,19.40
2017,07,13,14,46,19.30
2017,07,13,14,47,19.30
2017,07,13,14,48,19.30
2017,07,13,14,49,19.40
2017,07,13,14,50,19.30
2017,07,13,14,51,19.30
2017,07,13,14,52,19.50
2017,07,13,14,53,19.60
2017,07,13,14,54,19.70
2017,07,13,14,55,19.80
2017,07,13,14,56,19.80
2017,07,13,14,57,19.90
2017,07,13,14,58,20.10
2017,07,13,14,59,20.30
2017,07,13,15,00,20.20
2017,07,13,15,01,20.20
2017,07,13,15,02,20.20
2017,07,13,15,03,20.20
2017,07,13,15,04,20.30
2017,07,13,15,05,20.00
2017,07,13,15,06,19.80
2017,07,13,15,07,19.70
2017,07,13,15,08,19.70
2017,07,13,15,09,19.70
2017,07,13,15,10,19.70
2017,07,13,15,11,19.70
2017,07,13,15,12,19.50
2017,07,13,15,13,19.40
2017,07,13,15,14,19.30
2017,07,13,15,15,19.30
2017,07,13,15,16,19.30
2017,07,13,15,17,19.20
2017,07,13,15,18,19.20
2017,07,13,15,19,19.20
2017,07,13,15,20,19.20
2017,07,13,15,21,19.20
2017,07,13,15,22,19.20
2017,07,13,15,23,19.10
2017,07,13,15,24,19.10
2017,07,13,15,25,19.10
2017,07,13,15,26,19.10
2017,07,13,15,27,19.10
2017,07,13,15,28,19.20
2017,07,13,15,29,19.20
2017,07,13,15,30,19.20
2017,07,13,15,31,19.20
2017,07,13,15,32,19.10
2017,07,13,15,33,19.20
2017,07,13,15,34,19.20
2017,07,13,15,35,19.20
2017,07,13,15,36,19.20
2017,07,13,15,37,19.30
2017,07,13,15,38,19.30
2017,07,13,15,39,19.30
2017,07,13,15,40,19.40
2017,07,13,15,41,19.50
2017,07,13,15,42,19.50
2017,07,13,15,43,19.50
2017,07,13,15,44,19.50
2017,07,13,15,45,19.60
2017,07,13,15,46,19.60
2017,07,13,15,47,19.50
2017,07,13,15,48,19.50
2017,07,13,15,49,19.50
2017,07,13,15,50,19.50
2017,07,13,15,51,19.50
2017,07,13,15,52,19.50
2017,07,13,15,53,19.50
2017,07,13,15,54,19.50
2017,07,13,15,55,19.40
2017,07,13,15,56,19.40
2017,07,13,15,57,19.50
2017,07,13,15,58,19.50
2017,07,13,15,59,19.60
2017,07,13,16,00,19.60
2017,07,13,16,01,19.70
2017,07,13,16,02,19.70
2017,07,13,16,03,19.70
2017,07,13,16,04,19.70
2017,07,13,16,05,19.70
2017,07,13,16,06,19.70
2017,07,13,16,07,19.80
2017,07,13,16,08,19.80
2017,07,13,16,09,19.80
2017,07,13,16,10,19.80
2017,07,13,16,11,19.80
2017,07,13,16,12,19.90
2017,07,13,16,13,19.90
2017,07,13,16,14,19.90
2017,07,13,16,15,19.90
2017,07,13,16,16,19.90
2017,07,13,16,17,19.90
2017,07,13,16,18,19.90
2017,07,13,16,19,19.90
2017,07,13,16,20,19.90
2017,07,13,16,21,19.90
2017,07,13,16,22,20.00
2017,07,13,16,23,20.00
2017,07,13,16,24,20.00
2017,07,13,16,25,19.90
2017,07,13,16,26,19.90
2017,07,13,16,27,19.90
2017,07,13,16,28,20.00
2017,07,13,16,29,20.00
2017,07,13,16,30,20.00
2017,07,13,16,31,20.00
2017,07,13,16,32,20.10
2017,07,13,16,33,20.10
2017,07,13,16,34,20.10
2017,07,13,16,35,20.10
2017,07,13,16,36,20.10
2017,07,13,16,37,20.10
2017,07,13,16,38,20.00
2017,07,13,16,39,20.10
2017,07,13,16,40,20.10
2017,07,13,16,41,20.10
2017,07,13,16,42,20.10
2017,07,13,16,43,20.10
2017,07,13,16,44,20.20
2017,07,13,16,45,20.20
2017,07,13,16,46,20.20
2017,07,13,16,47,20.20
2017,07,13,16,48,20.20
2017,07,13,16,49,20.20
2017,07,13,16,50,20.20
2017,07,13,16,51,20.20
2017,07,13,16,52,20.20
2017,07,13,16,53,20.10
2017,07,13,16,54,20.10
2017,07,13,16,55,20.00
2017,07,13,16,56,20.00
2017,07,13,16,57,19.90
2017,07,13,16,58,19.90
2017,07,13,16,59,19.90
2017,07,13,17,00,19.90
2017,07,13,17,01,19.90
2017,07,13,17,02,19.90
2017,07,13,17,03,19.90
2017,07,13,17,04,19.90
2017,07,13,17,05,19.90
2017,07,13,17,06,19.90
2017,07,13,17,07,19.90
2017,07,13,17,08,20.00
2017,07,13,17,09,20.00
2017,07,13,17,10,20.00
2017,07,13,17,11,20.00
2017,07,13,17,12,20.10
2017,07,13,17,13,20.00
2017,07,13,17,14,20.00
2017,07,13,17,15,20.00
2017,07,13,17,16,20.10
2017,07,13,17,17,20.10
2017,07,13,17,18,20.10
2017,07,13,17,19,20.20
2017,07,13,17,20,20.20